GORIZONT 14 [-]

Last updated on Jan. 23, 2021, 7:21 a.m. UTC

1 17969U 87040A   21022.79969881 -.00000098  00000-0  00000-0 0  9993
2 17969  13.9951 334.8352 0027741 157.2239  31.9157  0.97658488100608
UTC
Height (km)
Latitude
Longitude
Inclination
Orbital Period
UTC large
Height (km)
Speed (km/s)
/
Latitude / Longitude
Inclination (degrees)
Orbital Period (minutes)
Azimuth
Elevation
Range (km)
Doppler Factor
iOS Compass Heading
iOS Angle

Next 30 passes for location: Hong Kong

Rise time Rise Azimuth (degrees) Set time Set Azimuth (degrees) Duration Max altitude (degrees)

No matching passes for this satellites